Regional Weather Roundup
Issued by NWS

Home | Current Version | Previous Version | Graphics & Text | Print | Product List | Glossary On
Versions: 1 2 3 4 5 6 7 8 9 10 11 12 13 14 15 16 17 18 19 20 21 22 23 24 25 26 27 28 29 30 31 32 33 34 35 36 37 38 39 40 41 42 43 44 45 46 47 48 49 50
000
ASUS43 KFSD 281302
RWRSD

WEATHER ROUNDUP FOR SOUTH DAKOTA
NATIONAL WEATHER SERVICE SIOUX FALLS SD
700 AM CST FRI NOV 28 2014

NOTE: "FAIR" INDICATES FEW OR NO CLOUDS BELOW 12,000 FEET WITH NO
SIGNIFICANT WEATHER AND/OR OBSTRUCTIONS TO VISIBILITY.


SDZ001>005-009-010-012>017-281400-
NORTHWEST AND NORTH CENTRAL SOUTH DAKOTA

CITY           SKY/WX    TMP DP  RH WIND       PRES   REMARKS
BUFFALO          N/A     40  29  64 W8        29.59F
FAITH            N/A     35  25  66 S6        29.66F
MOBRIDGE       CLOUDY    17  12  80 E10       29.73F WCI   5
$$

SDZ012>016-024>037-041>051-057-063-072>074-281400-
SOUTHWEST AND SOUTH CENTRAL SOUTH DAKOTA

CITY           SKY/WX    TMP DP  RH WIND       PRES   REMARKS
RAPID CTY ARPT MOCLDY    43  28  55 N3        29.70R
PIERRE         CLOUDY    18  14  84 NE7       29.74S WCI   9
CUSTER         PTCLDY    43  23  45 W12       29.76F
ELLSWORTH AFB  MOCLDY    39  27  63 NW7       29.70R
PHILIP         MOCLDY    27  23  85 CALM      29.69F
PINE RIDGE     MOCLDY    30  24  78 CALM      29.75F
WINNER         FAIR      42  29  59 S9        29.73S
$$

SDZ004>011-016>023-039-040-281400-
NORTHEAST SOUTH DAKOTA

CITY           SKY/WX    TMP DP  RH WIND       PRES   REMARKS
ABERDEEN       CLOUDY    15   9  76 NE7       29.85S WCI   5
WATERTOWN      CLOUDY    15  12  88 SE7       29.80F WCI   5
SISSETON         N/A      5   2  87 S6        29.92F WCI  -6
$$

SDZ017-020-022-023-036>040-048>070-281400-
SOUTHEAST SOUTH DAKOTA

CITY           SKY/WX    TMP DP  RH WIND       PRES   REMARKS
SIOUX FALLS    CLOUDY    19  16  88 E5        29.82F WCI  12
HURON          CLOUDY    20  16  84 SE5       29.80F WCI  13
MITCHELL       CLOUDY    22  18  85 SE6       29.80F WCI  14
YANKTON        MOCLDY    21  18  86 E7        29.83S WCI  13
$$

ABBREVIATIONS USED IN REMARKS
   TC - TEMPERATURE IN CELSIUS
  WCI - WIND CHILL INDEX
   HX - HEAT INDEX
  VSB - VISIBILITY




USA.gov is the U.S. government's official web portal to all federal, state and local government web resources and services.